<?xml version="1.0"?>
<gpx xmlns="http://www.topografix.com/GPX/1/1" xmlns:xsi="http://www.w3.org/2001/XMLSchema-instance" version="1.1" creator="GPX RubyGem 1.0.0 -- http://dougfales.github.io/gpx/" xsi:schemaLocation="http://www.topografix.com/GPX/1/1 http://www.topografix.com/GPX/1/1/gpx.xsd">
  <metadata>
    <name/>
    <time>2026-05-07T23:37:10+00:00</time>
    <bound minlat="90.0" minlon="180.0" maxlat="-90.0" maxlon="-180.0"/>
  </metadata>
  <trk>
    <name/>
    <trkseg>
      <trkpt lat="46.52193" lon="8.11422">
        <time>1970-01-01T00:00:00+00:00</time>
        <ele>3051.0</ele>
      </trkpt>
      <trkpt lat="46.52242" lon="8.1143">
        <time>1970-01-01T00:00:00+00:00</time>
        <ele>3056.0</ele>
      </trkpt>
      <trkpt lat="46.52257" lon="8.11405">
        <time>1970-01-01T00:00:00+00:00</time>
        <ele>3048.0</ele>
      </trkpt>
      <trkpt lat="46.52242" lon="8.11435">
        <time>1970-01-01T00:00:00+00:00</time>
        <ele>3057.0</ele>
      </trkpt>
      <trkpt lat="46.52272" lon="8.11413">
        <time>1970-01-01T00:00:00+00:00</time>
        <ele>3053.0</ele>
      </trkpt>
      <trkpt lat="46.52272" lon="8.1151">
        <time>1970-01-01T00:00:00+00:00</time>
        <ele>3091.0</ele>
      </trkpt>
      <trkpt lat="46.52319" lon="8.11493">
        <time>1970-01-01T00:00:00+00:00</time>
        <ele>3091.0</ele>
      </trkpt>
      <trkpt lat="46.52283" lon="8.11566">
        <time>1970-01-01T00:00:00+00:00</time>
        <ele>3128.0</ele>
      </trkpt>
      <trkpt lat="46.52386" lon="8.11531">
        <time>1970-01-01T00:00:00+00:00</time>
        <ele>3127.0</ele>
      </trkpt>
      <trkpt lat="46.52345" lon="8.11662">
        <time>1970-01-01T00:00:00+00:00</time>
        <ele>3172.0</ele>
      </trkpt>
      <trkpt lat="46.52536" lon="8.11585">
        <time>1970-01-01T00:00:00+00:00</time>
        <ele>3237.0</ele>
      </trkpt>
      <trkpt lat="46.52543" lon="8.11851">
        <time>1970-01-01T00:00:00+00:00</time>
        <ele>3276.0</ele>
      </trkpt>
      <trkpt lat="46.52764" lon="8.11701">
        <time>1970-01-01T00:00:00+00:00</time>
        <ele>3386.0</ele>
      </trkpt>
      <trkpt lat="46.52802" lon="8.11748">
        <time>1970-01-01T00:00:00+00:00</time>
        <ele>3416.0</ele>
      </trkpt>
      <trkpt lat="46.52819" lon="8.11817">
        <time>1970-01-01T00:00:00+00:00</time>
        <ele>3436.0</ele>
      </trkpt>
      <trkpt lat="46.52869" lon="8.11752">
        <time>1970-01-01T00:00:00+00:00</time>
        <ele>3454.0</ele>
      </trkpt>
      <trkpt lat="46.52869" lon="8.11804">
        <time>1970-01-01T00:00:00+00:00</time>
        <ele>3460.0</ele>
      </trkpt>
      <trkpt lat="46.52892" lon="8.11851">
        <time>1970-01-01T00:00:00+00:00</time>
        <ele>3470.0</ele>
      </trkpt>
      <trkpt lat="46.5303" lon="8.11759">
        <time>1970-01-01T00:00:00+00:00</time>
        <ele>3518.0</ele>
      </trkpt>
      <trkpt lat="46.53021" lon="8.11626">
        <time>1970-01-01T00:00:00+00:00</time>
        <ele>3534.0</ele>
      </trkpt>
      <trkpt lat="46.5307" lon="8.11632">
        <time>1970-01-01T00:00:00+00:00</time>
        <ele>3553.0</ele>
      </trkpt>
      <trkpt lat="46.53133" lon="8.11651">
        <time>1970-01-01T00:00:00+00:00</time>
        <ele>3574.0</ele>
      </trkpt>
      <trkpt lat="46.53216" lon="8.11729">
        <time>1970-01-01T00:00:00+00:00</time>
        <ele>3601.0</ele>
      </trkpt>
      <trkpt lat="46.5321" lon="8.11739">
        <time>1970-01-01T00:00:00+00:00</time>
        <ele>3597.0</ele>
      </trkpt>
      <trkpt lat="46.53283" lon="8.11763">
        <time>1970-01-01T00:00:00+00:00</time>
        <ele>3642.0</ele>
      </trkpt>
      <trkpt lat="46.53459" lon="8.11759">
        <time>1970-01-01T00:00:00+00:00</time>
        <ele>3700.0</ele>
      </trkpt>
      <trkpt lat="46.53474" lon="8.11885">
        <time>1970-01-01T00:00:00+00:00</time>
        <ele>3761.0</ele>
      </trkpt>
      <trkpt lat="46.53444" lon="8.1193">
        <time>1970-01-01T00:00:00+00:00</time>
        <ele>3772.0</ele>
      </trkpt>
      <trkpt lat="46.53425" lon="8.11975">
        <time>1970-01-01T00:00:00+00:00</time>
        <ele>3779.0</ele>
      </trkpt>
      <trkpt lat="46.53508" lon="8.12012">
        <time>1970-01-01T00:00:00+00:00</time>
        <ele>3808.0</ele>
      </trkpt>
      <trkpt lat="46.53545" lon="8.12012">
        <time>1970-01-01T00:00:00+00:00</time>
        <ele>3820.0</ele>
      </trkpt>
      <trkpt lat="46.53583" lon="8.11993">
        <time>1970-01-01T00:00:00+00:00</time>
        <ele>3829.0</ele>
      </trkpt>
      <trkpt lat="46.53588" lon="8.12018">
        <time>1970-01-01T00:00:00+00:00</time>
        <ele>3844.0</ele>
      </trkpt>
      <trkpt lat="46.53573" lon="8.12083">
        <time>1970-01-01T00:00:00+00:00</time>
        <ele>3861.0</ele>
      </trkpt>
      <trkpt lat="46.53588" lon="8.12066">
        <time>1970-01-01T00:00:00+00:00</time>
        <ele>3864.0</ele>
      </trkpt>
      <trkpt lat="46.53633" lon="8.12093">
        <time>1970-01-01T00:00:00+00:00</time>
        <ele>3889.0</ele>
      </trkpt>
      <trkpt lat="46.53656" lon="8.12081">
        <time>1970-01-01T00:00:00+00:00</time>
        <ele>3893.0</ele>
      </trkpt>
      <trkpt lat="46.53667" lon="8.12083">
        <time>1970-01-01T00:00:00+00:00</time>
        <ele>3898.0</ele>
      </trkpt>
      <trkpt lat="46.53684" lon="8.12113">
        <time>1970-01-01T00:00:00+00:00</time>
        <ele>3916.0</ele>
      </trkpt>
      <trkpt lat="46.538" lon="8.12119">
        <time>1970-01-01T00:00:00+00:00</time>
        <ele>3963.0</ele>
      </trkpt>
      <trkpt lat="46.53806" lon="8.12205">
        <time>1970-01-01T00:00:00+00:00</time>
        <ele>4004.0</ele>
      </trkpt>
      <trkpt lat="46.53894" lon="8.12196">
        <time>1970-01-01T00:00:00+00:00</time>
        <ele>4024.0</ele>
      </trkpt>
      <trkpt lat="46.53982" lon="8.12218">
        <time>1970-01-01T00:00:00+00:00</time>
        <ele>4047.0</ele>
      </trkpt>
      <trkpt lat="46.5395" lon="8.12267">
        <time>1970-01-01T00:00:00+00:00</time>
        <ele>4053.0</ele>
      </trkpt>
      <trkpt lat="46.53937" lon="8.12308">
        <time>1970-01-01T00:00:00+00:00</time>
        <ele>4056.0</ele>
      </trkpt>
      <trkpt lat="46.53937" lon="8.12325">
        <time>1970-01-01T00:00:00+00:00</time>
        <ele>4054.0</ele>
      </trkpt>
      <trkpt lat="46.53991" lon="8.12351">
        <time>1970-01-01T00:00:00+00:00</time>
        <ele>4035.0</ele>
      </trkpt>
      <trkpt lat="46.53948" lon="8.12248">
        <time>1970-01-01T00:00:00+00:00</time>
        <ele>4051.0</ele>
      </trkpt>
      <trkpt lat="46.53944" lon="8.12224">
        <time>1970-01-01T00:00:00+00:00</time>
        <ele>4046.0</ele>
      </trkpt>
      <trkpt lat="46.53952" lon="8.12248">
        <time>1970-01-01T00:00:00+00:00</time>
        <ele>4051.0</ele>
      </trkpt>
      <trkpt lat="46.53946" lon="8.12272">
        <time>1970-01-01T00:00:00+00:00</time>
        <ele>4053.0</ele>
      </trkpt>
      <trkpt lat="46.53955" lon="8.1228">
        <time>1970-01-01T00:00:00+00:00</time>
        <ele>4054.0</ele>
      </trkpt>
      <trkpt lat="46.53963" lon="8.12263">
        <time>1970-01-01T00:00:00+00:00</time>
        <ele>4054.0</ele>
      </trkpt>
      <trkpt lat="46.5398" lon="8.12321">
        <time>1970-01-01T00:00:00+00:00</time>
        <ele>4050.0</ele>
      </trkpt>
      <trkpt lat="46.5397" lon="8.12269">
        <time>1970-01-01T00:00:00+00:00</time>
        <ele>4054.0</ele>
      </trkpt>
      <trkpt lat="46.53978" lon="8.12304">
        <time>1970-01-01T00:00:00+00:00</time>
        <ele>4053.0</ele>
      </trkpt>
      <trkpt lat="46.53974" lon="8.12297">
        <time>1970-01-01T00:00:00+00:00</time>
        <ele>4054.0</ele>
      </trkpt>
      <trkpt lat="46.54006" lon="8.12334">
        <time>1970-01-01T00:00:00+00:00</time>
        <ele>4042.0</ele>
      </trkpt>
      <trkpt lat="46.53982" lon="8.1234">
        <time>1970-01-01T00:00:00+00:00</time>
        <ele>4043.0</ele>
      </trkpt>
      <trkpt lat="46.53982" lon="8.12332">
        <time>1970-01-01T00:00:00+00:00</time>
        <ele>4046.0</ele>
      </trkpt>
      <trkpt lat="46.53955" lon="8.12332">
        <time>1970-01-01T00:00:00+00:00</time>
        <ele>4050.0</ele>
      </trkpt>
      <trkpt lat="46.53961" lon="8.12299">
        <time>1970-01-01T00:00:00+00:00</time>
        <ele>4054.0</ele>
      </trkpt>
      <trkpt lat="46.5395" lon="8.12332">
        <time>1970-01-01T00:00:00+00:00</time>
        <ele>4051.0</ele>
      </trkpt>
      <trkpt lat="46.53942" lon="8.12336">
        <time>1970-01-01T00:00:00+00:00</time>
        <ele>4052.0</ele>
      </trkpt>
      <trkpt lat="46.53948" lon="8.12362">
        <time>1970-01-01T00:00:00+00:00</time>
        <ele>4042.0</ele>
      </trkpt>
      <trkpt lat="46.53937" lon="8.12366">
        <time>1970-01-01T00:00:00+00:00</time>
        <ele>4045.0</ele>
      </trkpt>
      <trkpt lat="46.53935" lon="8.12375">
        <time>1970-01-01T00:00:00+00:00</time>
        <ele>4043.0</ele>
      </trkpt>
      <trkpt lat="46.53922" lon="8.12385">
        <time>1970-01-01T00:00:00+00:00</time>
        <ele>4046.0</ele>
      </trkpt>
      <trkpt lat="46.5392" lon="8.124">
        <time>1970-01-01T00:00:00+00:00</time>
        <ele>4042.0</ele>
      </trkpt>
      <trkpt lat="46.53892" lon="8.12426">
        <time>1970-01-01T00:00:00+00:00</time>
        <ele>4042.0</ele>
      </trkpt>
      <trkpt lat="46.53886" lon="8.12478">
        <time>1970-01-01T00:00:00+00:00</time>
        <ele>3985.0</ele>
      </trkpt>
      <trkpt lat="46.53882" lon="8.12482">
        <time>1970-01-01T00:00:00+00:00</time>
        <ele>3980.0</ele>
      </trkpt>
      <trkpt lat="46.53888" lon="8.12482">
        <time>1970-01-01T00:00:00+00:00</time>
        <ele>3977.0</ele>
      </trkpt>
      <trkpt lat="46.53871" lon="8.1249">
        <time>1970-01-01T00:00:00+00:00</time>
        <ele>3972.0</ele>
      </trkpt>
      <trkpt lat="46.53852" lon="8.12525">
        <time>1970-01-01T00:00:00+00:00</time>
        <ele>3941.0</ele>
      </trkpt>
      <trkpt lat="46.53832" lon="8.12531">
        <time>1970-01-01T00:00:00+00:00</time>
        <ele>3951.0</ele>
      </trkpt>
      <trkpt lat="46.53798" lon="8.12561">
        <time>1970-01-01T00:00:00+00:00</time>
        <ele>3951.0</ele>
      </trkpt>
      <trkpt lat="46.53804" lon="8.12572">
        <time>1970-01-01T00:00:00+00:00</time>
        <ele>3939.0</ele>
      </trkpt>
      <trkpt lat="46.53783" lon="8.12578">
        <time>1970-01-01T00:00:00+00:00</time>
        <ele>3947.0</ele>
      </trkpt>
      <trkpt lat="46.5377" lon="8.12572">
        <time>1970-01-01T00:00:00+00:00</time>
        <ele>3960.0</ele>
      </trkpt>
      <trkpt lat="46.53757" lon="8.12608">
        <time>1970-01-01T00:00:00+00:00</time>
        <ele>3950.0</ele>
      </trkpt>
      <trkpt lat="46.53731" lon="8.12608">
        <time>1970-01-01T00:00:00+00:00</time>
        <ele>3970.0</ele>
      </trkpt>
      <trkpt lat="46.53729" lon="8.12613">
        <time>1970-01-01T00:00:00+00:00</time>
        <ele>3968.0</ele>
      </trkpt>
      <trkpt lat="46.53731" lon="8.12606">
        <time>1970-01-01T00:00:00+00:00</time>
        <ele>3971.0</ele>
      </trkpt>
    </trkseg>
  </trk>
</gpx>
